Weather History for Mandan, ND

Change the Weather History Date:

Sunday, March 23, 2014

  Actual Average (KBIS) Record (KBIS)
Temperature  
Mean Temperature 20 °F 33 °F  
Max Temperature 32 °F 44 °F 81 °F (1910)
Min Temperature 8 °F 22 °F -15 °F (1899)
Degree Days  
Heating Degree Days 45 32  
Month to date heating degree days 850  
Since 1 July heating degree days 7281  
Cooling Degree Days 0 0  
Month to date cooling degree days 0  
Year to date cooling degree days 0  
Moisture  
Dew Point 10 °F    
Average Humidity 68    
Maximum Humidity 93    
Minimum Humidity 38    
Precipitation  
Precipitation 0.02 in 0.03 in 0.87 in (1950)
Month to date precipitation 0.61  
Year to date precipitation 1.55  
Snow  
Snow 0.00 in 0.20 in 8.80 in (1950)
Month to date snowfall 7.0  
Since 1 July snowfall 44.5  
Snow Depth -    
Sea Level Pressure  
Sea Level Pressure 30.32 in    
Wind  
Wind Speed 4 mph (SSE)    
Max Wind Speed 12 mph    
Max Gust Speed 18 mph    
Visibility 10 miles    
Events Snow    
T = Trace of Precipitation, MM = Missing Value Source: NWS Daily Summary

Daily Weather History Graph

Daily Weather History Graph

Search for Another Location

Airport:

Trip Planner

Search our weather history database for the weather conditions in past years. The results will help you decide how hot, cold, wet, or windy it might be!

Date:

Astronomy

Mar. 23, 2014 Rise Set
Actual Time 7:40 AM CDT 8:00 PM CDT
Civil Twilight 7:10 AM CDT 8:30 PM CDT
Nautical Twilight 6:34 AM CDT 9:06 PM CDT
Astronomical Twilight 5:57 AM CDT 9:43 PM CDT
Moon 2:36 AM CDT (3/23) 12:05 PM CDT (3/23)
Length of Visible Light 13h 20m
Length of Day
12h 19m
Waning Gibbous, 54% of the Moon is Illuminated
Mar 23
Waning Gibbous
Mar 23
Last Quarter
Mar 30
New
Apr 7
First Quarter
Apr 15
Full

Hourly Weather History & Observations

Time (CDT) Temp. Windchill Dew Point Humidity Pressure Visibility Wind Dir Wind Speed Gust Speed Precip Events Conditions
12:15 AM 14.0 °F 8.2 °F 5.0 °F 67% 30.48 in 10.0 mi NE 3.5 mph - N/A   Partly Cloudy
12:35 AM 14.0 °F 6.5 °F 5.0 °F 67% 30.48 in 10.0 mi NNE 4.6 mph - N/A   Partly Cloudy
12:55 AM 14.0 °F - 5.0 °F 67% 30.47 in 10.0 mi Calm Calm - N/A   Partly Cloudy
1:15 AM 8.6 °F - 5.0 °F 85% 30.47 in 10.0 mi Calm Calm - N/A   Partly Cloudy
1:35 AM 8.6 °F - 6.8 °F 92% 30.47 in 10.0 mi Calm Calm - N/A   Partly Cloudy
1:55 AM 8.6 °F - 6.8 °F 92% 30.46 in 10.0 mi Calm Calm - N/A   Clear
2:15 AM 8.6 °F - 6.8 °F 92% 30.46 in 10.0 mi Calm Calm - N/A   Clear
2:35 AM 8.6 °F - 6.8 °F 92% 30.46 in 10.0 mi Calm Calm - N/A   Partly Cloudy
2:55 AM 10.4 °F - 6.8 °F 85% 30.45 in 10.0 mi Calm Calm - N/A   Clear
3:15 AM 10.4 °F - 6.8 °F 85% 30.44 in 10.0 mi Calm Calm - N/A   Clear
3:35 AM 8.6 °F 2.0 °F 5.0 °F 85% 30.44 in 10.0 mi SW 3.5 mph - N/A   Clear
3:55 AM 8.6 °F 2.0 °F 5.0 °F 85% 30.43 in 10.0 mi SSW 3.5 mph - N/A   Clear
4:15 AM 10.4 °F 2.2 °F 5.0 °F 79% 30.43 in 10.0 mi SSW 4.6 mph - N/A   Clear
4:35 AM 10.4 °F 4.0 °F 5.0 °F 79% 30.42 in 10.0 mi South 3.5 mph - N/A   Clear
4:55 AM 10.4 °F 2.2 °F 5.0 °F 79% 30.41 in 10.0 mi South 4.6 mph - N/A   Clear
5:15 AM 8.6 °F 0.1 °F 5.0 °F 85% 30.41 in 10.0 mi South 4.6 mph - N/A   Clear
5:35 AM 8.6 °F 2.0 °F 5.0 °F 85% 30.40 in 10.0 mi SE 3.5 mph - N/A   Clear
5:55 AM 8.6 °F -1.3 °F 5.0 °F 85% 30.40 in 10.0 mi SSE 5.8 mph - N/A   Clear
6:15 AM 8.6 °F 0.1 °F 5.0 °F 85% 30.39 in 10.0 mi SE 4.6 mph - N/A   Clear
6:35 AM 8.6 °F 0.1 °F 5.0 °F 85% 30.39 in 10.0 mi ESE 4.6 mph - N/A   Clear
6:55 AM 8.6 °F 0.1 °F 5.0 °F 85% 30.38 in 10.0 mi ESE 4.6 mph - N/A   Clear
7:15 AM 8.6 °F 0.1 °F 5.0 °F 85% 30.38 in 10.0 mi ESE 4.6 mph - N/A   Clear
7:35 AM 8.6 °F -1.3 °F 5.0 °F 85% 30.38 in 10.0 mi SE 5.8 mph - N/A   Clear
7:55 AM 8.6 °F 0.1 °F 5.0 °F 85% 30.38 in 10.0 mi SE 4.6 mph - N/A   Clear
8:15 AM 8.6 °F 0.1 °F 6.8 °F 92% 30.38 in 10.0 mi SE 4.6 mph - N/A   Clear
8:35 AM 10.4 °F 4.0 °F 6.8 °F 85% 30.38 in 10.0 mi ESE 3.5 mph - N/A   Clear
8:55 AM 12.2 °F 2.9 °F 6.8 °F 79% 30.37 in 10.0 mi ESE 5.8 mph - N/A   Clear
9:15 AM 14.0 °F 5.1 °F 8.6 °F 79% 30.36 in 10.0 mi East 5.8 mph - N/A   Clear
9:35 AM 14.0 °F 5.1 °F 8.6 °F 79% 30.36 in 10.0 mi ESE 5.8 mph - N/A   Clear
9:55 AM 15.8 °F 5.1 °F 8.6 °F 73% 30.36 in 10.0 mi ESE 8.1 mph - N/A   Clear
10:15 AM 17.6 °F 8.2 °F 8.6 °F 68% 30.35 in 10.0 mi ESE 6.9 mph - N/A   Clear
10:35 AM 17.6 °F 6.4 °F 8.6 °F 68% 30.35 in 10.0 mi SE 9.2 mph - N/A   Clear
10:55 AM 19.4 °F 10.4 °F 8.6 °F 63% 30.34 in 10.0 mi SE 6.9 mph - N/A   Clear
11:15 AM 21.2 °F 11.7 °F 8.6 °F 58% 30.34 in 10.0 mi ESE 8.1 mph - N/A   Clear
11:35 AM 23.0 °F 13.1 °F 8.6 °F 54% 30.33 in 10.0 mi ESE 9.2 mph - N/A   Clear
11:55 AM 23.0 °F 14.7 °F 6.8 °F 50% 30.32 in 10.0 mi SSE 6.9 mph - N/A   Clear
12:15 PM 24.8 °F 16.9 °F 6.8 °F 46% 30.31 in 10.0 mi SSE 6.9 mph 18.4 mph N/A   Partly Cloudy
12:35 PM 24.8 °F 16.1 °F 6.8 °F 46% 30.30 in 10.0 mi SSE 8.1 mph - N/A   Clear
12:55 PM 24.8 °F 14.0 °F 5.0 °F 43% 30.29 in 10.0 mi SSE 11.5 mph - N/A   Clear
1:15 PM 26.6 °F 16.8 °F 6.8 °F 43% 30.28 in 10.0 mi SSE 10.4 mph 18.4 mph N/A   Clear
1:35 PM 26.6 °F 18.2 °F 6.8 °F 43% 30.28 in 10.0 mi SSE 8.1 mph - N/A   Clear
1:55 PM 28.4 °F 19.7 °F 6.8 °F 40% 30.27 in 10.0 mi South 9.2 mph - N/A   Clear
2:15 PM 28.4 °F 21.2 °F 6.8 °F 40% 30.26 in 10.0 mi South 6.9 mph 16.1 mph N/A   Partly Cloudy
2:35 PM 28.4 °F 20.4 °F 6.8 °F 40% 30.24 in 10.0 mi SSW 8.1 mph - N/A   Partly Cloudy
2:55 PM 28.4 °F 23.3 °F 6.8 °F 40% 30.24 in 10.0 mi SSE 4.6 mph - N/A   Clear
3:15 PM 28.4 °F 19.7 °F 8.6 °F 43% 30.23 in 10.0 mi SSW 9.2 mph - N/A   Scattered Clouds
3:35 PM 28.4 °F - 8.6 °F 43% 30.22 in 10.0 mi Calm Calm - N/A   Mostly Cloudy
3:55 PM 30.2 °F 22.6 °F 8.6 °F 40% 30.22 in 10.0 mi WSW 8.1 mph - N/A   Mostly Cloudy
4:15 PM 30.2 °F 26.7 °F 8.6 °F 40% 30.21 in 10.0 mi ENE 3.5 mph - N/A   Overcast
4:35 PM 32.0 °F 28.7 °F 8.6 °F 38% 30.21 in 10.0 mi South 3.5 mph - N/A   Overcast
4:55 PM 30.2 °F 25.4 °F 10.4 °F 44% 30.21 in 10.0 mi SSE 4.6 mph - N/A   Overcast
5:15 PM 30.2 °F 26.7 °F 8.6 °F 40% 30.21 in 10.0 mi ESE 3.5 mph - N/A   Overcast
5:35 PM 30.2 °F - 10.4 °F 44% 30.21 in 10.0 mi Calm Calm - N/A   Overcast
5:55 PM 32.0 °F - 10.4 °F 41% 30.21 in 10.0 mi Calm Calm - N/A   Overcast
6:15 PM 30.2 °F - 10.4 °F 44% 30.21 in 10.0 mi Calm Calm - N/A   Mostly Cloudy
6:35 PM 28.4 °F 23.3 °F 14.0 °F 55% 30.21 in 10.0 mi West 4.6 mph - N/A   Overcast
6:55 PM 28.4 °F - 12.2 °F 51% 30.21 in 10.0 mi Calm Calm - N/A   Overcast
7:15 PM 28.4 °F 22.2 °F 14.0 °F 55% 30.21 in 10.0 mi NW 5.8 mph - N/A   Overcast
7:35 PM 28.4 °F - 14.0 °F 55% 30.22 in 10.0 mi Calm Calm - N/A   Overcast
7:55 PM 28.4 °F 23.3 °F 15.8 °F 59% 30.22 in 10.0 mi WSW 4.6 mph - N/A   Overcast
8:15 PM 28.4 °F 22.2 °F 17.6 °F 64% 30.23 in 10.0 mi NW 5.8 mph - N/A   Overcast
8:35 PM 26.6 °F 20.0 °F 19.4 °F 74% 30.23 in 10.0 mi WNW 5.8 mph - N/A   Overcast
8:55 PM 26.6 °F 21.2 °F 17.6 °F 69% 30.24 in 10.0 mi NW 4.6 mph - N/A   Overcast
9:15 PM 24.8 °F 17.9 °F 19.4 °F 80% 30.25 in 10.0 mi WNW 5.8 mph - N/A   Overcast
9:35 PM 26.6 °F 20.0 °F 21.2 °F 80% 30.25 in 7.0 mi WNW 5.8 mph - N/A Snow Light Snow
9:55 PM 24.8 °F 16.9 °F 23.0 °F 93% 30.26 in 5.0 mi NW 6.9 mph - 0.01 in Snow Light Snow
10:15 PM 24.8 °F 17.9 °F 23.0 °F 93% 30.26 in 4.0 mi NW 5.8 mph - 0.01 in Snow Light Snow
10:35 PM 24.8 °F 19.1 °F 23.0 °F 93% 30.26 in 9.0 mi WNW 4.6 mph - 0.01 in Snow Light Snow
10:55 PM 24.8 °F 19.1 °F 23.0 °F 93% 30.26 in 10.0 mi West 4.6 mph - 0.01 in   Overcast
11:15 PM 24.8 °F 20.5 °F 23.0 °F 93% 30.26 in 10.0 mi WNW 3.5 mph - N/A   Overcast
11:35 PM 23.0 °F 17.0 °F 21.2 °F 93% 30.26 in 10.0 mi NW 4.6 mph - N/A   Overcast
11:55 PM 23.0 °F 15.8 °F 19.4 °F 86% 30.26 in 10.0 mi NW 5.8 mph - N/A   Overcast